Regional Weather Roundup
Issued by NWS

Home | Current Version | Previous Version | Text Only | Print | Product List | Glossary On
Versions: 1 2 3 4 5 6 7 8 9 10 11 12 13 14 15 16 17 18 19 20 21 22 23 24 25 26 27 28 29 30 31 32 33 34 35 36 37 38 39 40 41 42 43 44 45 46 47 48 49 50
000
ASCA44 KEWX 091220
RWRMX

LATIN AMERICA AND CARIBBEAN REGIONAL WEATHER ROUNDUP
NATIONAL WEATHER SERVICE AUSTIN/SAN ANTONIO TX
600 AM CST FRI DEC 09 2016

NOTE: "FAIR" INDICATED FEW OR NO CLOUDS BELOW 12,000 FEET WITH NO
SIGNIFICANT WEATHER AND/OR OBSTRUCTIONS TO VISIBILITY.

BAJA CALIFORNIA

CITY           SKY/WX    TMP DP  RH WIND       PRES   REMARKS
S.J. DEL CABO    N/A    N/A N/A N/A MISG        N/A
TIJUANA        PTCLDY    50  45  81 CALM      30.28F

NORTHWESTERN MEXICO

CITY           SKY/WX    TMP DP  RH WIND       PRES   REMARKS
HERMOSILLO     CLEAR     50  43  76 CALM      30.10

NORTHEASTERN MEXICO

CITY           SKY/WX    TMP DP  RH WIND       PRES   REMARKS
CHIHUAHUA      CLEAR     28  28 100 CALM      30.41
MONCLOVA         N/A    N/A N/A N/A MISG        N/A
MONTERREY      CLOUDY    41  32  70 NW16      30.53R WCI  33
REYNOSA        CLOUDY    41  28  60 NW9G21    30.55  WCI  35
CD. VICTORIA     N/A    N/A N/A N/A MISG        N/A

WESTERN MEXICO

CITY           SKY/WX    TMP DP  RH WIND       PRES   REMARKS
AGUASCALIENTES CLEAR     46  45  93 NE6       30.36  WCI  43
COLIMA           N/A    N/A N/A N/A MISG        N/A
DEL BAJIO      CLEAR     55  48  76 CALM      30.39R
GUADALAJARA    CLEAR     46  43  87 CALM      30.26
MAZATLAN       CLEAR     54  52  94 CALM      29.98S
P. VALLARTA    CLEAR     63  63 100 CALM      29.96S
URUAPAN          N/A    N/A N/A N/A MISG        N/A
ZACATECAS      MOCLDY    39  27  60 CALM      30.39S

CENTRAL MEXICO

CITY           SKY/WX    TMP DP  RH WIND       PRES   REMARKS
CUERNAVACA       N/A    N/A N/A N/A MISG        N/A
MEXICO CITY    MOCLDY    57  46  67 W7        30.42R
MORELIA        CLEAR     41  41 100 CALM      30.32
POZA RICA        N/A    N/A N/A N/A MISG        N/A
PUEBLA         PTCLDY    50  45  81 N7        30.41  WCI  47
QUERETARO      MOCLDY    54  50  87 E14       30.43R
S. LUIS POTOSI CLOUDY    52  45  76 SE9       30.39S
TAMPICO        LGT RAIN  55  52  88 W6        30.37
TOLUCA         FOG       41  39  93 CALM      30.47R VSB 1/2

SOUTHERN MEXICO

CITY           SKY/WX    TMP DP  RH WIND       PRES   REMARKS
ACAPULCO       PTCLDY    75  72  88 NW3       29.93R
B. DE HUATULCO   N/A    N/A N/A N/A MISG        N/A
OAXACA         MOCLDY    63  54  72 NW8       30.31
P. ESCONDIDO   CLEAR     73  70  88 NE9       30.03
VERACRUZ       PTCLDY    68  63  83 N23       30.14

YUCATAN PENINSULA

CITY           SKY/WX    TMP DP  RH WIND       PRES   REMARKS
CAMPECHE       PTCLDY    75  75 100 SE6       30.03R
CANCUN         PTCLDY    68  68 100 W3        30.08R
CHETUMAL       PTCLDY    72  70  94 CALM      30.05
CD. DEL CARMEN PTCLDY    77  73  88 NE5       30.05
COZUMEL        PTCLDY    68  66  94 CALM      30.06R
MERIDA           N/A    N/A N/A N/A MISG        N/A
MINATITLAN     PTCLDY    72  64  78 NW17G35   30.06
TAPACHULA      PTCLDY    75  73  94 CALM      29.92R
TUX. GUTIERREZ PTCLDY    61  61 100 CALM      30.07R FOG

CENTRAL AMERICA

CITY           SKY/WX    TMP DP  RH WIND       PRES   REMARKS
BELIZE CITY    PTCLDY    77  75  94 E5        30.05R
MANAGUA        MOSUNNY   73  68  83 CALM      29.89R

CARIBBEAN

CITY           SKY/WX    TMP DP  RH WIND       PRES   REMARKS
ARUBA          SHOWER    75  72  88 E17       29.92R
CURACAO        MOSUNNY   79  73  83 SE8       29.92R
KINGSTON       PTCLDY    77  72  83 N8        29.97S
NASSAU         PTCLDY    73  72  94 CALM      30.10R
SAN JUAN       MOSUNNY   79  73  83 CALM      30.04R
SANTO DOMINGO  MOSUNNY   70  66  88 N5        30.03R
ST. CROIX      MOSUNNY   81  73  78 NE9       30.02
ST. KITTS      MOSUNNY   82  73  74 NE14      30.00S
ST. MAARTEN    MOSUNNY   82  77  83 E10       30.00S HX  91
ST. THOMAS     SUNNY     81  73  78 E10       30.02

$$





USA.gov is the U.S. government's official web portal to all federal, state and local government web resources and services.